Overview Statistics Trail Chart Weather Telemetry Raw packets
 

This is the latest recevied weather packets stored in our database for station/object KJ7HSW. If no packets are shown the sender has not sent any weather packets the latest 10 day(s).

<< 5 6 7 8 9 10 11 >>
Time Temp. Humidity Pressure Rain* Wind** Luminosity Snow
1788566358 18.89° C 66% 1014.7 hPa 0 mm - 164 W/m² -
1788566054 18.89° C 65% 1014.7 hPa 0 mm - 154 W/m² -
1788565753 18.89° C 65% 1014.7 hPa 0 mm - 191 W/m² -
1788565448 18.89° C 65% 1014.7 hPa 0 mm - 210 W/m² -
1788565144 18.89° C 65% 1014.4 hPa 0 mm - 170 W/m² -
1788564839 18.89° C 66% 1014.4 hPa 0 mm - 201 W/m² -
1788564536 18.89° C 67% 1014.6 hPa 0 mm - 225 W/m² -
1788564232 18.89° C 67% 1014.5 hPa 0 mm - 241 W/m² -
1788563922 18.89° C 67% 1014.5 hPa 0 mm - 222 W/m² -
1788563622 18.89° C 66% 1014.6 hPa 0 mm - 221 W/m² -
1788563317 18.89° C 65% 1014.5 hPa 0 mm - 204 W/m² -
1788563016 19.44° C 65% 1014.5 hPa 0 mm - 180 W/m² -
1788562712 19.44° C 66% 1014.6 hPa 0 mm - 162 W/m² -
1788562410 18.89° C 62% 1014.3 hPa 0 mm - 170 W/m² -
1788562124 19.44° C 62% 1014.4 hPa 0 mm - 148 W/m² -
1788561805 19.44° C 61% 1014.3 hPa 0 mm - 136 W/m² -
1788561498 19.44° C 61% 1014.3 hPa 0 mm - 121 W/m² -
1788561194 19.44° C 60% 1014.2 hPa 0 mm - 130 W/m² -
1788560890 19.44° C 61% 1014.1 hPa 0 mm - 163 W/m² -
1788560584 19.44° C 58% 1014.3 hPa 0 mm - 156 W/m² -
1788560278 19.44° C 59% 1014.2 hPa 0 mm - 179 W/m² -
1788559973 20° C 56% 1014.3 hPa 0 mm - 190 W/m² -
1788559668 20° C 59% 1014.4 hPa 0 mm - 182 W/m² -
1788559368 20° C 58% 1014.5 hPa 0 mm - 261 W/m² -
1788559063 20° C 57% 1014.4 hPa 0 mm - 205 W/m² -

* Rain latest hour (hover to see other rain measurements)
** Current wind speed in m/s (hover to see current wind gust speed)